Showing default

QIANFAN-55, 62785

Orbit data source: Space-Track

QIANFAN-55, 62785 is a Chinese payload satellite in LEO that was launched on Thu, 23 Jan 2025 UTC via a CHANG ZHENG 6A launch vehicle from the Taiyaun Space Center, China (TSC). Payload-class satellites include a variety of spacecraft equipped with specific instruments for various scientific and technological missions. These include communications satellites like Starlink; space stations such as the ISS; scientific satellites like the Hubble; Earth observation satellites from companies like Planet Labs, Umbra, and HawkEye 360; GPS; miniature CubeSats for education and research; and military/defense satellites.

Loading next visibility...
Identifier
62785, 2025-016A
Orbit
LEO
Country
Flag of CNCN / PRC
Related business
Manufacturer
SECM
Mission
Operational Commercial Communications
Bus & Motor
QIANFAN, Unknown motor
Mass
267 kg wet, ~267 kg dry
Launch date (UTC)
2025-01-23 (9 months ago)
Launch vehicle
CHANG ZHENG 6A
Launch site
Taiyaun Space Center, China (TSC)
Object type
Payload
Rocket body
Debris
Shape & HBR
Box + 1 Pan, 1.2 m
Radar Cross Section
13.200 m², Large (>1 m²)

Expand to show TLE details & history
Last TLE update: 6 hours ago

TLE from 6 hours ago
0 QIANFAN-55
1 62785U 25016A   25308.11429529  .00000037  00000-0  38640-4 0  9998
2 62785  88.9749 107.1969 0019006  99.7361 260.5938 13.50969674 41973
Epoch: 2025-11-04T02:44Z
TLE epoch observation values (Epoch: 2025-11-04T02:44:35.113Z)
Latitude
0.00003°
Longitude
22.44463°
Altitude
1,073.986 km
Speed
7.314 km/s
True Right ascension
07h 08m 47s
True Declination
0° 00' 00"
Sunlit
Object was in daylight at epoch
Visualization orbit readout
Latitude
Unknown
Longitude
Unknown
Altitude
Unknown
Speed
Unknown
Apparent Right ascension
Unknown
Apparent Declination
Unknown
Sunlit
N/A
Visualization observer readout
Local Sidereal Time
05:00:58
Azimuth
Unknown
Elevation
Unknown
Doppler factor
Unknown
Orbital elements
Apogee altitude
1,079.892 km
Perigee altitude
1,051.596 km
Semi-major axis
7,443.881 km
Eccentricity
0.0019
Inclination
88.9749°
RAAN
107.1969°
Arg. of periapsis
99.7361°
True anomaly
260.37902°
Mean anomaly
260.5938°
Eccentric anomaly
260.4864°
Mean motion
3.37943 °/min
Orbital period
106.53 mins
BSTAR
0.00003864
Loading maneuver chart data...
Computing Atmospheric mass density...
Loading historical data...
Loading historical data...
Loading historical data...
Loading historical data...
Loading historical data...
Loading historical data...
Loading historical data...

Documentation

Showing up to 5 results
|